Yankton, SD

12:47 AM CDT on April 26, 2017 (GMT -0500)
Gurney Municipal

Weather History for KYKN - April, 2013

Change the Weather History Date:

Monday, April 22, 2013

  Actual Average Record
Temperature  
Mean Temperature 34 °F -  
Max Temperature 39 °F 61 °F 95 °F (1980)
Min Temperature 28 °F 37 °F 24 °F (2015)
Degree Days  
Heating Degree Days 32    
Moisture  
Dew Point 30 °F    
Average Humidity 90    
Maximum Humidity 100    
Minimum Humidity 80    
Precipitation  
Precipitation 0.00 in - - ()
Sea Level Pressure  
Sea Level Pressure 30.18 in    
Wind  
Wind Speed 11 mph (NNE)    
Max Wind Speed 20 mph    
Max Gust Speed 26 mph    
Visibility 6 miles    
Events      
Averages and records for this station are not official NWS values.
T = Trace of Precipitation, MM = Missing Value Source: NWS Daily Summary

Daily Weather History Graph

Daily Weather History Graph

Search for Another Location

Airport or City:

Trip Planner

Search our weather history database for the weather conditions in past years. The results will help you decide how hot, cold, wet, or windy it might be!

Date:

Astronomy

Apr. 22, 2013 Rise Set
Actual Time 6:36 AM CDT 8:20 PM CDT
Civil Twilight 6:06 AM CDT 8:50 PM CDT
Nautical Twilight 5:29 AM CDT 9:27 PM CDT
Astronomical Twilight 4:50 AM CDT 10:06 PM CDT
Moon 5:06 PM CDT (4/22) 4:36 AM CDT (4/22)
Length of Visible Light 14h 44m
Length of Day
13h 44m
Waxing Gibbous, 88% of the Moon is Illuminated
Apr 22
Waxing Gibbous
Apr 25
Full
May 2
Last Quarter
May 9
New
May 17
First Quarter

Hourly Weather History & Observations

Time (CDT) Temp. Windchill Dew Point Humidity Pressure Visibility Wind Dir Wind Speed Gust Speed Precip Events Conditions
12:15 AM 39.2 °F 33.6 °F 33.8 °F 81% 30.18 in 10.0 mi NNE 8.1 mph - N/A   Mostly Cloudy
12:35 AM 37.4 °F 33.8 °F 33.8 °F 87% 30.18 in 10.0 mi NNE 4.6 mph - N/A   Scattered Clouds
12:55 AM 37.4 °F 32.1 °F 33.8 °F 87% 30.17 in 10.0 mi North 6.9 mph - N/A   Scattered Clouds
1:15 AM 37.4 °F 31.4 °F 33.8 °F 87% 30.18 in 10.0 mi NNE 8.1 mph - N/A   Scattered Clouds
1:35 AM 37.4 °F 31.4 °F 33.8 °F 87% 30.17 in 10.0 mi NE 8.1 mph - N/A   Mostly Cloudy
1:55 AM 37.4 °F 31.4 °F 33.8 °F 87% 30.16 in 10.0 mi NE 8.1 mph - N/A   Overcast
2:15 AM 37.4 °F 30.3 °F 33.8 °F 87% 30.16 in 10.0 mi NE 10.4 mph - N/A   Overcast
2:35 AM 37.4 °F 29.8 °F 33.8 °F 87% 30.14 in 10.0 mi ENE 11.5 mph - N/A   Overcast
2:55 AM 37.4 °F 30.8 °F 33.8 °F 87% 30.14 in 10.0 mi NE 9.2 mph - N/A   Overcast
3:15 AM 37.4 °F 30.3 °F 33.8 °F 87% 30.14 in 10.0 mi NNE 10.4 mph - N/A   Overcast
3:35 AM 37.4 °F 30.8 °F 33.8 °F 87% 30.13 in 10.0 mi NE 9.2 mph - N/A   Overcast
3:55 AM 37.4 °F 29.8 °F 33.8 °F 87% 30.12 in 10.0 mi NE 11.5 mph - N/A   Overcast
4:15 AM 37.4 °F 30.3 °F 33.8 °F 87% 30.14 in 10.0 mi NE 10.4 mph - N/A   Overcast
4:35 AM 35.6 °F 28.0 °F 32.0 °F 87% 30.13 in 10.0 mi NE 10.4 mph - N/A   Overcast
4:55 AM 35.6 °F 28.0 °F 32.0 °F 87% 30.13 in 10.0 mi NE 10.4 mph - N/A   Overcast
5:15 AM 35.6 °F 28.0 °F 32.0 °F 87% 30.13 in 10.0 mi NNE 10.4 mph - N/A   Overcast
5:35 AM 35.6 °F 27.1 °F 32.0 °F 87% 30.11 in 10.0 mi NNE 12.7 mph - N/A   Overcast
5:55 AM 35.6 °F 27.1 °F 32.0 °F 87% 30.10 in 10.0 mi NNE 12.7 mph - N/A   Overcast
6:15 AM 35.6 °F 25.9 °F 30.2 °F 81% 30.10 in 10.0 mi NNE 16.1 mph 20.7 mph N/A   Overcast
6:35 AM 35.6 °F 26.6 °F 30.2 °F 81% 30.10 in 10.0 mi NNE 13.8 mph - N/A   Overcast
6:55 AM 35.6 °F 26.6 °F 30.2 °F 81% 30.11 in 10.0 mi NNE 13.8 mph - N/A   Overcast
7:15 AM 33.8 °F 24.3 °F 30.2 °F 87% 30.11 in 10.0 mi NNE 13.8 mph 19.6 mph N/A   Overcast
7:35 AM 33.8 °F 24.3 °F 28.4 °F 81% 30.12 in 10.0 mi NE 13.8 mph - N/A   Overcast
7:55 AM 33.8 °F 24.3 °F 28.4 °F 81% 30.13 in 3.0 mi NE 13.8 mph - N/A   Overcast
8:15 AM 32.0 °F 22.5 °F 30.2 °F 93% 30.15 in 3.0 mi NNE 12.7 mph 26.5 mph N/A   Overcast
8:35 AM 32.0 °F 23.0 °F 30.2 °F 93% 30.14 in 3.0 mi NNE 11.5 mph - N/A   Overcast
8:55 AM 32.0 °F 23.6 °F 30.2 °F 93% 30.14 in 2.0 mi NNE 10.4 mph - N/A   Overcast
9:15 AM 32.0 °F 23.0 °F 30.2 °F 93% 30.15 in 1.8 mi North 11.5 mph - N/A   Overcast
9:35 AM 32.0 °F 23.0 °F 30.2 °F 93% 30.15 in 1.5 mi NNE 11.5 mph 18.4 mph N/A   Overcast
9:55 AM 32.0 °F 22.1 °F 30.2 °F 93% 30.15 in 1.2 mi North 13.8 mph - N/A   Overcast
10:15 AM 30.2 °F 19.8 °F 28.4 °F 93% 30.14 in 1.2 mi NNE 13.8 mph - N/A   Overcast
10:35 AM 30.2 °F 19.3 °F 28.4 °F 93% 30.15 in 1.2 mi North 15.0 mph 20.7 mph N/A   Overcast
10:55 AM 30.2 °F 20.2 °F 28.4 °F 93% 30.16 in 1.2 mi North 12.7 mph 19.6 mph N/A   Overcast
11:15 AM 30.2 °F 20.2 °F 28.4 °F 93% 30.16 in 1.2 mi North 12.7 mph - N/A   Overcast
11:35 AM 30.2 °F 20.2 °F 28.4 °F 93% 30.16 in 0.8 mi North 12.7 mph 19.6 mph N/A   Overcast
11:55 AM 30.2 °F 20.2 °F 28.4 °F 93% 30.15 in 1.0 mi North 12.7 mph - N/A   Overcast
12:15 PM 30.2 °F 19.3 °F 30.2 °F 100% 30.14 in 1.0 mi North 15.0 mph - N/A   Overcast
12:35 PM 30.2 °F 19.8 °F 28.4 °F 93% 30.14 in 1.2 mi North 13.8 mph - N/A   Overcast
12:55 PM 30.2 °F 18.5 °F 28.4 °F 93% 30.14 in 1.5 mi North 17.3 mph 21.9 mph N/A   Overcast
1:15 PM 30.2 °F 20.8 °F 28.4 °F 93% 30.15 in 1.8 mi North 11.5 mph - N/A   Overcast
1:35 PM 30.2 °F 21.3 °F 28.4 °F 93% 30.15 in 1.0 mi North 10.4 mph 17.3 mph N/A   Overcast
1:55 PM 30.2 °F 20.2 °F 28.4 °F 93% 30.15 in 0.8 mi North 12.7 mph - N/A   Overcast
2:15 PM 30.2 °F 18.9 °F 30.2 °F 100% 30.16 in 0.8 mi North 16.1 mph 19.6 mph N/A   Overcast
2:35 PM 30.2 °F 18.9 °F 30.2 °F 100% 30.16 in 0.2 mi North 16.1 mph 20.7 mph N/A   Overcast
2:55 PM 30.2 °F 19.8 °F 28.4 °F 93% 30.16 in 0.2 mi North 13.8 mph 23.0 mph N/A   Overcast
3:15 PM 30.2 °F 20.2 °F 28.4 °F 93% 30.16 in 0.2 mi North 12.7 mph 19.6 mph N/A   Overcast
3:35 PM 30.2 °F 19.8 °F 28.4 °F 93% 30.16 in 0.2 mi North 13.8 mph - N/A   Overcast
3:55 PM 30.2 °F 20.8 °F 28.4 °F 93% 30.17 in 0.2 mi North 11.5 mph - N/A   Overcast
4:15 PM 30.2 °F 20.2 °F 28.4 °F 93% 30.18 in 0.2 mi North 12.7 mph - N/A   Overcast
4:35 PM 30.2 °F 20.2 °F 28.4 °F 93% 30.18 in 0.5 mi North 12.7 mph - N/A   Unknown
4:55 PM 30.2 °F 18.9 °F 30.2 °F 100% 30.18 in 0.8 mi North 16.1 mph - N/A   Unknown
5:15 PM 32.0 °F 23.6 °F 30.2 °F 93% 30.19 in 1.0 mi North 10.4 mph - N/A   Clear
5:35 PM 30.2 °F 20.2 °F 28.4 °F 93% 30.20 in 4.0 mi North 12.7 mph 20.7 mph N/A   Clear
5:55 PM 30.2 °F 18.5 °F 28.4 °F 93% 30.19 in 9.0 mi North 17.3 mph - N/A   Partly Cloudy
6:15 PM 32.0 °F 20.1 °F 28.4 °F 87% 30.19 in 10.0 mi North 19.6 mph 24.2 mph N/A   Mostly Cloudy
6:35 PM 30.2 °F 19.3 °F 28.4 °F 93% 30.22 in 10.0 mi North 15.0 mph - N/A   Overcast
6:55 PM 30.2 °F 19.3 °F 28.4 °F 93% 30.22 in 10.0 mi North 15.0 mph - N/A   Overcast
7:15 PM 30.2 °F 20.2 °F 26.6 °F 86% 30.23 in 10.0 mi North 12.7 mph 19.6 mph N/A   Overcast
7:35 PM 30.2 °F 19.8 °F 26.6 °F 86% 30.25 in 10.0 mi North 13.8 mph - N/A   Overcast
7:55 PM 30.2 °F 19.8 °F 26.6 °F 86% 30.25 in 10.0 mi North 13.8 mph - N/A   Overcast
8:15 PM 30.2 °F 19.8 °F 26.6 °F 86% 30.26 in 10.0 mi North 13.8 mph - N/A   Overcast
8:35 PM 30.2 °F 20.2 °F 24.8 °F 80% 30.26 in 10.0 mi North 12.7 mph - N/A   Scattered Clouds
8:55 PM 28.4 °F 18.0 °F 26.6 °F 93% 30.27 in 10.0 mi North 12.7 mph - N/A   Scattered Clouds
9:15 PM 30.2 °F 21.3 °F 26.6 °F 86% 30.28 in 10.0 mi North 10.4 mph - N/A   Overcast
9:35 PM 28.4 °F 18.0 °F 26.6 °F 93% 30.28 in 10.0 mi North 12.7 mph - N/A   Scattered Clouds
9:55 PM 28.4 °F - 24.8 °F 86% 30.29 in 10.0 mi North - - N/A   Clear
10:15 PM 28.4 °F - 26.6 °F 93% 30.28 in 10.0 mi North - - N/A   Scattered Clouds
10:35 PM 28.4 °F - 24.8 °F 86% 30.27 in 10.0 mi North - - N/A   Partly Cloudy
10:55 PM 28.4 °F - 26.6 °F 93% 30.30 in 10.0 mi North - - N/A   Mostly Cloudy
11:15 PM 28.4 °F - 26.6 °F 93% 30.30 in 10.0 mi North - - N/A   Overcast
11:35 PM 30.2 °F - 26.6 °F 86% 30.32 in 10.0 mi North - - N/A   Overcast
11:55 PM 30.2 °F - 26.6 °F 86% 30.30 in 10.0 mi North - - N/A   Overcast